| time (UTC) | temp F | wind direction | speed MPH | gust MPH | rain 1hr in | rain 24hr in | rain mn in | humidity % | barometer mb |
| 20260508035828 | 60 | 218 | 0.0 | 0.0 | 0.00 | 0.00 | 0.00 | 48 | 1009.5 |
| 20260508035330 | 60 | 219 | 0.0 | 0.0 | 0.00 | 0.00 | 0.00 | 47 | 1009.5 |
| 20260508034830 | 60 | 167 | 0.0 | 0.0 | 0.00 | 0.00 | 0.00 | 46 | 1009.5 |
| 20260508034328 | 61 | 167 | 0.0 | 0.0 | 0.00 | 0.00 | 0.00 | 46 | 1009.5 |
| 20260508033828 | 61 | 167 | 0.0 | 0.0 | 0.00 | 0.00 | 0.00 | 45 | 1009.5 |
| 20260508033330 | 61 | 168 | 0.0 | 0.0 | 0.00 | 0.00 | 0.00 | 45 | 1009.8 |
| 20260508032830 | 62 | 167 | 0.0 | 0.0 | 0.00 | 0.00 | 0.00 | 44 | 1009.5 |
| 20260508032328 | 62 | 166 | 0.0 | 0.0 | 0.00 | 0.00 | 0.00 | 44 | 1009.1 |
| 20260508031829 | 62 | 169 | 0.0 | 0.0 | 0.00 | 0.00 | 0.00 | 43 | 1009.1 |
| 20260508031329 | 62 | 170 | 0.0 | 0.0 | 0.00 | 0.00 | 0.00 | 43 | 1009.1 |
| 20260508030830 | 63 | 158 | 0.0 | 0.0 | 0.00 | 0.00 | 0.00 | 43 | 1009.5 |
| 20260508030329 | 63 | 154 | 0.0 | 0.0 | 0.00 | 0.00 | 0.00 | 42 | 1009.1 |
| 20260508025827 | 64 | 148 | 1.0 | 2.0 | 0.00 | 0.00 | 0.00 | 42 | 1009.1 |
| 20260508025327 | 64 | 199 | 0.0 | 0.0 | 0.00 | 0.00 | 0.00 | 41 | 1009.1 |
| 20260508024827 | 65 | 205 | 0.0 | 0.0 | 0.00 | 0.00 | 0.00 | 41 | 1009.1 |
| 20260508024327 | 65 | 124 | 0.0 | 1.0 | 0.00 | 0.00 | 0.00 | 40 | 1009.1 |
| 20260508023827 | 65 | 160 | 0.0 | 0.0 | 0.00 | 0.00 | 0.00 | 40 | 1009.1 |
| 20260508023327 | 66 | 35 | 1.0 | 1.0 | 0.00 | 0.00 | 0.00 | 40 | 1009.1 |
| 20260508022826 | 66 | 270 | 1.0 | 1.0 | 0.00 | 0.00 | 0.00 | 39 | 1009.1 |
| 20260508022327 | 66 | 278 | 1.0 | 1.0 | 0.00 | 0.00 | 0.00 | 39 | 1009.1 |
| 20260508021826 | 66 | 253 | 1.0 | 2.0 | 0.00 | 0.00 | 0.00 | 40 | 1008.8 |
| 20260508021325 | 66 | 261 | 0.0 | 1.0 | 0.00 | 0.00 | 0.00 | 40 | 1009.1 |
| 20260508020826 | 67 | 225 | 0.0 | 1.0 | 0.00 | 0.00 | 0.00 | 41 | 1008.8 |
| 20260508020326 | 67 | 262 | 1.0 | 1.0 | 0.00 | 0.00 | 0.00 | 40 | 1008.8 |
| 20260508015827 | 68 | 207 | 0.0 | 0.0 | 0.00 | 0.00 | 0.00 | 40 | 1008.8 |
| 20260508015325 | 68 | 216 | 2.0 | 2.0 | 0.00 | 0.00 | 0.00 | 39 | 1008.8 |
| 20260508014827 | 68 | 300 | 2.0 | 2.0 | 0.00 | 0.00 | 0.00 | 39 | 1008.8 |
| 20260508014329 | 68 | 299 | 2.0 | 3.0 | 0.00 | 0.00 | 0.00 | 38 | 1008.8 |
| 20260508013825 | 68 | 247 | 1.0 | 2.0 | 0.00 | 0.00 | 0.00 | 38 | 1008.8 |
| 20260508013325 | 68 | 267 | 2.0 | 2.0 | 0.00 | 0.00 | 0.00 | 38 | 1008.8 |
| 20260508012824 | 68 | 216 | 1.0 | 2.0 | 0.00 | 0.00 | 0.00 | 38 | 1008.5 |
| 20260508012324 | 67 | 252 | 2.0 | 2.0 | 0.00 | 0.00 | 0.00 | 37 | 1008.8 |
| 20260508011825 | 67 | 238 | 0.0 | 1.0 | 0.00 | 0.00 | 0.00 | 38 | 1008.8 |
| 20260508011324 | 67 | 282 | 3.0 | 3.0 | 0.00 | 0.00 | 0.00 | 38 | 1008.5 |
| 20260508010825 | 67 | 232 | 1.0 | 1.0 | 0.00 | 0.00 | 0.00 | 39 | 1008.8 |
| 20260508010324 | 67 | 204 | 0.0 | 1.0 | 0.00 | 0.00 | 0.00 | 39 | 1008.8 |
| 20260508005825 | 68 | 282 | 2.0 | 2.0 | 0.00 | 0.00 | 0.00 | 40 | 1008.8 |
| 20260508005322 | 68 | 255 | 1.0 | 2.0 | 0.00 | 0.00 | 0.00 | 40 | 1008.8 |
| 20260508004822 | 68 | 205 | 1.0 | 2.0 | 0.00 | 0.00 | 0.00 | 38 | 1008.8 |
| 20260508004324 | 68 | 233 | 1.0 | 1.0 | 0.00 | 0.00 | 0.00 | 36 | 1008.8 |
| 20260508003824 | 68 | 251 | 2.0 | 2.0 | 0.00 | 0.00 | 0.00 | 35 | 1008.8 |
| 20260508003324 | 68 | 137 | 1.0 | 2.0 | 0.00 | 0.00 | 0.00 | 35 | 1008.8 |
| 20260508002821 | 68 | 233 | 1.0 | 1.0 | 0.00 | 0.00 | 0.00 | 36 | 1008.8 |
| 20260508002321 | 69 | 205 | 0.0 | 0.0 | 0.00 | 0.00 | 0.00 | 36 | 1008.8 |
| 20260508001821 | 69 | 12 | 1.0 | 2.0 | 0.00 | 0.00 | 0.00 | 36 | 1008.8 |
| 20260508001322 | 69 | 67 | 1.0 | 1.0 | 0.00 | 0.00 | 0.00 | 35 | 1008.8 |
| 20260508000821 | 69 | 103 | 0.0 | 1.0 | 0.00 | 0.00 | 0.00 | 35 | 1008.5 |
| 20260508000321 | 69 | 294 | 2.0 | 2.0 | 0.00 | 0.00 | 0.00 | 35 | 1008.5 |
| 20260507235819 | 70 | 93 | 1.0 | 2.0 | 0.00 | 0.00 | 0.00 | 35 | 1008.5 |
| 20260507235320 | 69 | 86 | 2.0 | 3.0 | 0.00 | 0.00 | 0.00 | 35 | 1008.5 |
| 20260507234822 | 69 | 71 | 0.0 | 1.0 | 0.00 | 0.00 | 0.00 | 34 | 1008.5 |
| 20260507234320 | 68 | 346 | 1.0 | 2.0 | 0.00 | 0.00 | 0.00 | 35 | 1008.5 |
| 20260507233819 | 68 | 275 | 0.0 | 1.0 | 0.00 | 0.00 | 0.00 | 34 | 1008.5 |
| 20260507233320 | 68 | 258 | 3.0 | 5.0 | 0.00 | 0.00 | 0.00 | 34 | 1008.5 |
| 20260507232820 | 67 | 239 | 0.0 | 0.0 | 0.00 | 0.00 | 0.00 | 35 | 1008.5 |
| 20260507232320 | 68 | 70 | 1.0 | 2.0 | 0.00 | 0.00 | 0.00 | 35 | 1008.8 |
| 20260507231819 | 68 | 244 | 3.0 | 5.0 | 0.00 | 0.00 | 0.00 | 36 | 1008.8 |
| 20260507231318 | 68 | 298 | 2.0 | 3.0 | 0.00 | 0.00 | 0.00 | 36 | 1008.5 |
| 20260507230741 | 68 | 319 | 2.0 | 2.0 | 0.00 | 0.00 | 0.00 | 35 | 1008.5 |
| 20260507230243 | 68 | 335 | 2.0 | 2.0 | 0.00 | 0.00 | 0.00 | 35 | 1008.5 |
| 20260507225737 | 69 | 317 | 2.0 | 5.0 | 0.00 | 0.00 | 0.00 | 35 | 1008.5 |
| 20260507225238 | 69 | 173 | 1.0 | 2.0 | 0.00 | 0.00 | 0.00 | 34 | 1008.5 |
| 20260507224741 | 69 | 147 | 2.0 | 3.0 | 0.00 | 0.00 | 0.00 | 35 | 1008.5 |
| 20260507224243 | 70 | 109 | 2.0 | 5.0 | 0.00 | 0.00 | 0.00 | 35 | 1008.5 |
| 20260507223739 | 70 | 148 | 3.0 | 6.0 | 0.00 | 0.00 | 0.00 | 34 | 1008.5 |
| 20260507223239 | 70 | 223 | 3.0 | 5.0 | 0.00 | 0.00 | 0.00 | 34 | 1008.5 |
| 20260507222740 | 70 | 319 | 2.0 | 3.0 | 0.00 | 0.00 | 0.00 | 33 | 1008.5 |
| 20260507222242 | 70 | 36 | 3.0 | 5.0 | 0.00 | 0.00 | 0.00 | 33 | 1008.5 |
| 20260507221740 | 70 | 203 | 2.0 | 3.0 | 0.00 | 0.00 | 0.00 | 33 | 1008.5 |
| 20260507221239 | 70 | 10 | 2.0 | 5.0 | 0.00 | 0.00 | 0.00 | 34 | 1008.5 |
| 20260507220740 | 70 | 215 | 0.0 | 1.0 | 0.00 | 0.00 | 0.00 | 34 | 1008.5 |
| 20260507220239 | 70 | 292 | 4.0 | 7.0 | 0.00 | 0.00 | 0.00 | 33 | 1008.5 |
| 20260507215741 | 70 | 272 | 0.0 | 0.0 | 0.00 | 0.00 | 0.00 | 33 | 1008.5 |
| 20260507215239 | 70 | 272 | 1.0 | 2.0 | 0.00 | 0.00 | 0.00 | 34 | 1008.8 |
| 20260507214741 | 70 | 76 | 2.0 | 2.0 | 0.00 | 0.00 | 0.00 | 34 | 1008.5 |
| 20260507214240 | 70 | 75 | 1.0 | 2.0 | 0.00 | 0.00 | 0.00 | 35 | 1008.5 |
| 20260507213737 | 70 | 288 | 2.0 | 2.0 | 0.00 | 0.00 | 0.00 | 35 | 1008.5 |
| 20260507213240 | 70 | 124 | 1.0 | 1.0 | 0.00 | 0.00 | 0.00 | 34 | 1008.8 |
| 20260507212741 | 70 | 36 | 1.0 | 1.0 | 0.00 | 0.00 | 0.00 | 35 | 1008.8 |
| 20260507212218 | 70 | 99 | 5.0 | 9.0 | 0.00 | 0.00 | 0.00 | 35 | 1008.8 |
| 20260507211716 | 70 | 326 | 3.0 | 5.0 | 0.00 | 0.00 | 0.00 | 35 | 1008.8 |
| 20260507211214 | 71 | 103 | 2.0 | 3.0 | 0.00 | 0.00 | 0.00 | 36 | 1009.1 |
| 20260507210716 | 71 | 197 | 2.0 | 3.0 | 0.00 | 0.00 | 0.00 | 34 | 1009.1 |
| 20260507210215 | 70 | 286 | 3.0 | 5.0 | 0.00 | 0.00 | 0.00 | 35 | 1009.1 |
| 20260507205714 | 70 | 127 | 2.0 | 3.0 | 0.00 | 0.00 | 0.00 | 35 | 1009.1 |
| 20260507205214 | 69 | 337 | 2.0 | 2.0 | 0.00 | 0.00 | 0.00 | 34 | 1009.1 |
| 20260507204714 | 69 | 63 | 3.0 | 5.0 | 0.00 | 0.00 | 0.00 | 35 | 1009.1 |
| 20260507204214 | 68 | 192 | 0.0 | 1.0 | 0.00 | 0.00 | 0.00 | 34 | 1009.1 |
| 20260507203711 | 68 | 187 | 0.0 | 0.0 | 0.00 | 0.00 | 0.00 | 36 | 1009.1 |
| 20260507203214 | 68 | 112 | 3.0 | 5.0 | 0.00 | 0.00 | 0.00 | 35 | 1009.1 |
| 20260507202713 | 67 | 235 | 2.0 | 3.0 | 0.00 | 0.00 | 0.00 | 36 | 1009.1 |
| 20260507202213 | 67 | 308 | 3.0 | 3.0 | 0.00 | 0.00 | 0.00 | 36 | 1009.1 |
| 20260507201642 | 67 | 244 | 4.0 | 6.0 | 0.00 | 0.00 | 0.00 | 37 | 1009.5 |
| 20260507201137 | 66 | 246 | 1.0 | 2.0 | 0.00 | 0.00 | 0.00 | 37 | 1009.1 |
| 20260507200637 | 66 | 100 | 3.0 | 6.0 | 0.00 | 0.00 | 0.00 | 36 | 1009.1 |
| 20260507200141 | 66 | 145 | 1.0 | 2.0 | 0.00 | 0.00 | 0.00 | 38 | 1009.1 |
| 20260507195638 | 66 | 236 | 2.0 | 3.0 | 0.00 | 0.00 | 0.00 | 38 | 1009.5 |
| 20260507195139 | 66 | 255 | 3.0 | 3.0 | 0.00 | 0.00 | 0.00 | 39 | 1009.1 |
| 20260507194637 | 66 | 263 | 2.0 | 2.0 | 0.00 | 0.00 | 0.00 | 38 | 1009.1 |
| 20260507194112 | 66 | 339 | 7.0 | 8.0 | 0.00 | 0.00 | 0.00 | 38 | 1009.1 |
| 20260507193611 | 66 | 258 | 3.0 | 5.0 | 0.00 | 0.00 | 0.00 | 38 | 1009.1 |
| 20260507193113 | 66 | 333 | 1.0 | 1.0 | 0.00 | 0.00 | 0.00 | 37 | 1009.1 |
| 20260507192610 | 66 | 168 | 0.0 | 1.0 | 0.00 | 0.00 | 0.00 | 38 | 1009.1 |
| 20260507192111 | 66 | 238 | 0.0 | 1.0 | 0.00 | 0.00 | 0.00 | 38 | 1009.1 |
| 20260507191609 | 66 | 0 | 2.0 | 3.0 | 0.00 | 0.00 | 0.00 | 38 | 1009.1 |
| 20260507191112 | 66 | 38 | 4.0 | 5.0 | 0.00 | 0.00 | 0.00 | 38 | 1009.5 |
| 20260507190614 | 66 | 268 | 5.0 | 8.0 | 0.00 | 0.00 | 0.00 | 38 | 1009.1 |
| 20260507190112 | 66 | 238 | 3.0 | 3.0 | 0.00 | 0.00 | 0.00 | 38 | 1009.1 |
| 20260507185612 | 66 | 232 | 8.0 | 9.0 | 0.00 | 0.00 | 0.00 | 37 | 1009.1 |
| 20260507185112 | 66 | 112 | 2.0 | 2.0 | 0.00 | 0.00 | 0.00 | 37 | 1009.1 |
| 20260507184609 | 65 | 293 | 1.0 | 1.0 | 0.00 | 0.00 | 0.00 | 37 | 1009.5 |
| 20260507184112 | 65 | 308 | 5.0 | 7.0 | 0.00 | 0.00 | 0.00 | 39 | 1009.1 |
| 20260507183613 | 65 | 299 | 4.0 | 6.0 | 0.00 | 0.00 | 0.00 | 37 | 1009.5 |
| 20260507183114 | 65 | 269 | 3.0 | 3.0 | 0.00 | 0.00 | 0.00 | 38 | 1009.1 |
| 20260507182612 | 65 | 286 | 3.0 | 6.0 | 0.00 | 0.00 | 0.00 | 38 | 1009.1 |
| 20260507182112 | 65 | 288 | 4.0 | 5.0 | 0.00 | 0.00 | 0.00 | 38 | 1009.1 |
| 20260507181613 | 65 | 308 | 5.0 | 7.0 | 0.00 | 0.00 | 0.00 | 38 | 1009.1 |
| 20260507181114 | 65 | 246 | 1.0 | 1.0 | 0.00 | 0.00 | 0.00 | 38 | 1009.5 |
| 20260507180613 | 65 | 151 | 1.0 | 2.0 | 0.00 | 0.00 | 0.00 | 39 | 1009.1 |
| 20260507180116 | 65 | 254 | 3.0 | 3.0 | 0.00 | 0.00 | 0.00 | 39 | 1009.5 |
| 20260507175610 | 65 | 239 | 3.0 | 5.0 | 0.00 | 0.00 | 0.00 | 39 | 1009.5 |
| 20260507175113 | 65 | 220 | 0.0 | 1.0 | 0.00 | 0.00 | 0.00 | 39 | 1009.1 |
| 20260507174610 | 65 | 11 | 3.0 | 5.0 | 0.00 | 0.00 | 0.00 | 38 | 1009.1 |
| 20260507174115 | 65 | 244 | 1.0 | 2.0 | 0.00 | 0.00 | 0.00 | 40 | 1009.1 |
| 20260507173616 | 65 | 314 | 3.0 | 3.0 | 0.00 | 0.00 | 0.00 | 40 | 1009.5 |
| 20260507173135 | 64 | 114 | 1.0 | 2.0 | 0.00 | 0.00 | 0.00 | 39 | 1009.5 |
| 20260507172624 | 64 | 256 | 1.0 | 1.0 | 0.00 | 0.00 | 0.00 | 39 | 1009.5 |
| 20260507172125 | 64 | 194 | 3.0 | 5.0 | 0.00 | 0.00 | 0.00 | 40 | 1009.5 |
| 20260507171624 | 64 | 226 | 4.0 | 7.0 | 0.00 | 0.00 | 0.00 | 40 | 1009.5 |
| 20260507171126 | 64 | 160 | 2.0 | 3.0 | 0.00 | 0.00 | 0.00 | 39 | 1009.5 |
| 20260507170624 | 64 | 353 | 2.0 | 2.0 | 0.00 | 0.00 | 0.00 | 40 | 1009.5 |
| 20260507170124 | 63 | 98 | 3.0 | 5.0 | 0.00 | 0.00 | 0.00 | 42 | 1009.5 |
| 20260507165624 | 63 | 293 | 6.0 | 8.0 | 0.00 | 0.00 | 0.00 | 41 | 1009.5 |
| 20260507165124 | 62 | 298 | 3.0 | 5.0 | 0.00 | 0.00 | 0.00 | 41 | 1009.5 |
| 20260507164624 | 62 | 140 | 4.0 | 6.0 | 0.00 | 0.00 | 0.00 | 41 | 1009.5 |
| 20260507164125 | 61 | 259 | 3.0 | 5.0 | 0.00 | 0.00 | 0.00 | 40 | 1009.5 |
| 20260507163623 | 61 | 225 | 3.0 | 6.0 | 0.00 | 0.00 | 0.00 | 41 | 1009.5 |
| 20260507163123 | 61 | 157 | 3.0 | 3.0 | 0.00 | 0.00 | 0.00 | 43 | 1009.5 |
| 20260507162624 | 60 | 356 | 4.0 | 7.0 | 0.00 | 0.00 | 0.00 | 43 | 1009.5 |
| 20260507162121 | 60 | 13 | 2.0 | 3.0 | 0.00 | 0.00 | 0.00 | 43 | 1009.5 |
| 20260507161625 | 61 | 257 | 4.0 | 9.0 | 0.00 | 0.00 | 0.00 | 44 | 1009.5 |
| 20260507161122 | 60 | 213 | 1.0 | 2.0 | 0.00 | 0.00 | 0.00 | 45 | 1009.1 |
| 20260507160622 | 60 | 243 | 4.0 | 6.0 | 0.00 | 0.00 | 0.00 | 44 | 1009.5 |
| 20260507160122 | 60 | 266 | 3.0 | 3.0 | 0.00 | 0.00 | 0.00 | 45 | 1009.5 |
| 20260507155622 | 60 | 291 | 3.0 | 6.0 | 0.00 | 0.00 | 0.00 | 45 | 1009.8 |
| 20260507155121 | 60 | 269 | 3.0 | 5.0 | 0.00 | 0.00 | 0.00 | 46 | 1009.8 |
| 20260507154624 | 59 | 102 | 3.0 | 5.0 | 0.00 | 0.00 | 0.00 | 46 | 1009.8 |
| 20260507154122 | 59 | 339 | 4.0 | 7.0 | 0.00 | 0.00 | 0.00 | 47 | 1009.8 |
| 20260507153621 | 59 | 319 | 3.0 | 3.0 | 0.00 | 0.00 | 0.00 | 47 | 1010.2 |
| 20260507153121 | 59 | 257 | 5.0 | 7.0 | 0.00 | 0.00 | 0.00 | 48 | 1010.2 |
| 20260507152622 | 59 | 39 | 5.0 | 8.0 | 0.00 | 0.00 | 0.00 | 47 | 1009.8 |
| 20260507152120 | 59 | 262 | 4.0 | 6.0 | 0.00 | 0.00 | 0.00 | 48 | 1009.8 |
| 20260507151619 | 58 | 247 | 6.0 | 8.0 | 0.00 | 0.00 | 0.00 | 48 | 1010.2 |
| 20260507151121 | 58 | 278 | 3.0 | 5.0 | 0.00 | 0.00 | 0.00 | 48 | 1010.2 |
| 20260507150619 | 58 | 36 | 2.0 | 3.0 | 0.00 | 0.00 | 0.00 | 48 | 1010.2 |
| 20260507150119 | 58 | 310 | 4.0 | 6.0 | 0.00 | 0.00 | 0.00 | 48 | 1010.2 |
| 20260507145619 | 58 | 319 | 3.0 | 5.0 | 0.00 | 0.00 | 0.00 | 49 | 1010.2 |
| 20260507145120 | 57 | 238 | 3.0 | 3.0 | 0.00 | 0.00 | 0.00 | 50 | 1010.2 |
| 20260507144623 | 57 | 271 | 5.0 | 6.0 | 0.00 | 0.00 | 0.00 | 49 | 1010.2 |
| 20260507144119 | 57 | 271 | 3.0 | 3.0 | 0.00 | 0.00 | 0.00 | 49 | 1010.2 |
| 20260507143620 | 56 | 218 | 0.0 | 0.0 | 0.00 | 0.00 | 0.00 | 50 | 1010.2 |
| 20260507143118 | 56 | 277 | 1.0 | 2.0 | 0.00 | 0.00 | 0.00 | 50 | 1010.2 |
| 20260507142620 | 56 | 237 | 0.0 | 1.0 | 0.00 | 0.00 | 0.00 | 52 | 1009.8 |
| 20260507142119 | 56 | 270 | 3.0 | 3.0 | 0.00 | 0.00 | 0.00 | 53 | 1009.8 |
| 20260507141620 | 56 | 301 | 1.0 | 1.0 | 0.00 | 0.00 | 0.00 | 53 | 1009.8 |
| 20260507141117 | 56 | 253 | 1.0 | 1.0 | 0.00 | 0.00 | 0.00 | 54 | 1009.8 |
| 20260507140617 | 57 | 277 | 4.0 | 5.0 | 0.00 | 0.00 | 0.00 | 54 | 1009.5 |
| 20260507140117 | 57 | 239 | 1.0 | 2.0 | 0.00 | 0.00 | 0.00 | 54 | 1009.5 |
| 20260507135619 | 57 | 329 | 2.0 | 3.0 | 0.00 | 0.00 | 0.00 | 54 | 1009.5 |
| 20260507135117 | 56 | 285 | 4.0 | 5.0 | 0.00 | 0.00 | 0.00 | 51 | 1009.1 |
| 20260507134616 | 56 | 328 | 2.0 | 3.0 | 0.00 | 0.00 | 0.00 | 51 | 1009.5 |
| 20260507134116 | 56 | 273 | 3.0 | 3.0 | 0.00 | 0.00 | 0.00 | 51 | 1009.5 |
| 20260507133618 | 55 | 232 | 0.0 | 1.0 | 0.00 | 0.00 | 0.00 | 52 | 1009.5 |
| 20260507133115 | 55 | 289 | 3.0 | 3.0 | 0.00 | 0.00 | 0.00 | 52 | 1009.5 |
| 20260507132615 | 55 | 242 | 2.0 | 5.0 | 0.00 | 0.00 | 0.00 | 52 | 1009.5 |
| 20260507132116 | 54 | 281 | 3.0 | 5.0 | 0.00 | 0.00 | 0.00 | 52 | 1009.1 |
| 20260507131616 | 53 | 248 | 3.0 | 3.0 | 0.00 | 0.00 | 0.00 | 53 | 1008.8 |
| 20260507131114 | 53 | 271 | 5.0 | 7.0 | 0.00 | 0.00 | 0.00 | 53 | 1009.1 |
| 20260507130617 | 52 | 229 | 4.0 | 5.0 | 0.00 | 0.00 | 0.00 | 55 | 1008.8 |
| 20260507130117 | 52 | 268 | 4.0 | 5.0 | 0.00 | 0.00 | 0.00 | 56 | 1009.1 |
| 20260507125619 | 52 | 260 | 2.0 | 3.0 | 0.00 | 0.00 | 0.00 | 57 | 1009.1 |
| 20260507125116 | 52 | 229 | 2.0 | 3.0 | 0.00 | 0.00 | 0.00 | 59 | 1009.1 |
| 20260507124616 | 52 | 306 | 2.0 | 3.0 | 0.00 | 0.00 | 0.00 | 60 | 1009.1 |
| 20260507124115 | 52 | 255 | 0.0 | 1.0 | 0.00 | 0.00 | 0.00 | 60 | 1008.8 |
| 20260507123616 | 52 | 244 | 0.0 | 1.0 | 0.00 | 0.00 | 0.00 | 59 | 1008.8 |
| 20260507123114 | 51 | 266 | 3.0 | 3.0 | 0.00 | 0.00 | 0.00 | 58 | 1008.8 |
| 20260507122614 | 51 | 263 | 3.0 | 6.0 | 0.00 | 0.00 | 0.00 | 58 | 1009.1 |
| 20260507122113 | 51 | 269 | 2.0 | 2.0 | 0.00 | 0.00 | 0.00 | 58 | 1008.8 |
| 20260507121614 | 51 | 308 | 2.0 | 3.0 | 0.00 | 0.00 | 0.00 | 57 | 1009.1 |
| 20260507121114 | 51 | 310 | 2.0 | 3.0 | 0.00 | 0.00 | 0.00 | 57 | 1008.8 |
| 20260507120613 | 51 | 267 | 3.0 | 3.0 | 0.00 | 0.00 | 0.00 | 57 | 1008.8 |
| 20260507120114 | 51 | 303 | 2.0 | 2.0 | 0.00 | 0.00 | 0.00 | 57 | 1008.8 |
| 20260507115613 | 51 | 280 | 3.0 | 3.0 | 0.00 | 0.00 | 0.00 | 57 | 1008.8 |
| 20260507115114 | 50 | 288 | 3.0 | 3.0 | 0.00 | 0.00 | 0.00 | 58 | 1008.8 |
| 20260507114612 | 50 | 229 | 0.0 | 1.0 | 0.00 | 0.00 | 0.00 | 60 | 1008.5 |
| 20260507114113 | 50 | 242 | 3.0 | 3.0 | 0.00 | 0.00 | 0.00 | 60 | 1008.5 |
| 20260507113613 | 50 | 228 | 2.0 | 3.0 | 0.00 | 0.00 | 0.00 | 60 | 1008.5 |
| 20260507113111 | 50 | 236 | 1.0 | 2.0 | 0.00 | 0.00 | 0.00 | 59 | 1008.5 |
| 20260507112613 | 50 | 238 | 0.0 | 1.0 | 0.00 | 0.00 | 0.00 | 60 | 1008.5 |
| 20260507112113 | 50 | 288 | 3.0 | 5.0 | 0.00 | 0.00 | 0.00 | 60 | 1008.5 |
| 20260507111614 | 51 | 250 | 2.0 | 2.0 | 0.00 | 0.00 | 0.00 | 61 | 1008.5 |
| 20260507111113 | 51 | 248 | 1.0 | 1.0 | 0.00 | 0.00 | 0.00 | 62 | 1008.5 |
| 20260507110610 | 51 | 230 | 0.0 | 1.0 | 0.00 | 0.00 | 0.00 | 62 | 1008.5 |
| 20260507110112 | 51 | 246 | 1.0 | 2.0 | 0.00 | 0.00 | 0.00 | 62 | 1008.5 |
| 20260507105612 | 51 | 323 | 1.0 | 1.0 | 0.00 | 0.00 | 0.00 | 61 | 1008.5 |
| 20260507105111 | 51 | 289 | 2.0 | 2.0 | 0.00 | 0.00 | 0.00 | 60 | 1008.1 |
| 20260507104611 | 51 | 253 | 0.0 | 1.0 | 0.00 | 0.00 | 0.00 | 59 | 1008.1 |
| 20260507104113 | 51 | 280 | 3.0 | 5.0 | 0.00 | 0.00 | 0.00 | 58 | 1008.1 |
| 20260507103611 | 51 | 292 | 1.0 | 1.0 | 0.00 | 0.00 | 0.00 | 61 | 1008.1 |
| 20260507103114 | 51 | 237 | 1.0 | 1.0 | 0.00 | 0.00 | 0.00 | 62 | 1008.5 |
| 20260507102613 | 51 | 242 | 2.0 | 2.0 | 0.00 | 0.00 | 0.00 | 62 | 1008.1 |
| 20260507102112 | 51 | 133 | 0.0 | 1.0 | 0.00 | 0.00 | 0.00 | 63 | 1008.1 |
| 20260507101615 | 51 | 252 | 1.0 | 1.0 | 0.00 | 0.00 | 0.00 | 59 | 1008.1 |
| 20260507101113 | 51 | 244 | 0.0 | 0.0 | 0.00 | 0.00 | 0.00 | 59 | 1007.8 |
| 20260507100613 | 51 | 251 | 0.0 | 1.0 | 0.00 | 0.00 | 0.00 | 60 | 1008.1 |
| 20260507100113 | 51 | 242 | 0.0 | 0.0 | 0.00 | 0.00 | 0.00 | 60 | 1008.1 |
| 20260507095612 | 51 | 242 | 0.0 | 1.0 | 0.00 | 0.00 | 0.00 | 60 | 1007.8 |
| 20260507095111 | 50 | 259 | 2.0 | 2.0 | 0.00 | 0.00 | 0.00 | 61 | 1007.8 |
| 20260507094615 | 50 | 251 | 1.0 | 2.0 | 0.00 | 0.00 | 0.00 | 65 | 1008.1 |
| 20260507094110 | 50 | 265 | 2.0 | 2.0 | 0.00 | 0.00 | 0.00 | 65 | 1008.1 |
| 20260507093537 | 50 | 247 | 1.0 | 1.0 | 0.00 | 0.00 | 0.00 | 64 | 1008.5 |
| 20260507093038 | 51 | 271 | 1.0 | 2.0 | 0.00 | 0.00 | 0.00 | 65 | 1008.5 |
| 20260507092540 | 51 | 248 | 1.0 | 2.0 | 0.00 | 0.00 | 0.00 | 64 | 1008.1 |
| 20260507092038 | 51 | 246 | 0.0 | 1.0 | 0.00 | 0.00 | 0.00 | 59 | 1008.5 |
| 20260507091542 | 51 | 238 | 1.0 | 1.0 | 0.00 | 0.00 | 0.00 | 59 | 1008.1 |
| 20260507091040 | 51 | 240 | 1.0 | 1.0 | 0.00 | 0.00 | 0.00 | 58 | 1007.8 |
| 20260507090516 | 51 | 248 | 2.0 | 3.0 | 0.00 | 0.00 | 0.00 | 58 | 1008.1 |
| 20260507090014 | 51 | 241 | 1.0 | 2.0 | 0.00 | 0.00 | 0.00 | 57 | 1008.1 |
| 20260507085513 | 51 | 241 | 2.0 | 2.0 | 0.00 | 0.00 | 0.00 | 58 | 1007.8 |
| 20260507085016 | 51 | 247 | 1.0 | 2.0 | 0.00 | 0.00 | 0.00 | 58 | 1007.8 |
| 20260507084512 | 51 | 260 | 0.0 | 1.0 | 0.00 | 0.00 | 0.00 | 58 | 1007.8 |
| 20260507084014 | 52 | 244 | 0.0 | 1.0 | 0.00 | 0.00 | 0.00 | 59 | 1008.1 |
| 20260507083513 | 52 | 246 | 1.0 | 1.0 | 0.00 | 0.00 | 0.00 | 58 | 1008.1 |
| 20260507083013 | 52 | 277 | 1.0 | 1.0 | 0.00 | 0.00 | 0.00 | 57 | 1008.1 |
| 20260507082510 | 52 | 227 | 0.0 | 1.0 | 0.00 | 0.00 | 0.00 | 58 | 1008.1 |
| 20260507082012 | 53 | 264 | 1.0 | 1.0 | 0.00 | 0.00 | 0.00 | 57 | 1008.1 |
| 20260507081514 | 53 | 274 | 2.0 | 3.0 | 0.00 | 0.00 | 0.00 | 57 | 1008.1 |
| 20260507081012 | 53 | 234 | 1.0 | 2.0 | 0.00 | 0.00 | 0.00 | 57 | 1008.1 |
| 20260507080443 | 53 | 224 | 1.0 | 1.0 | 0.00 | 0.00 | 0.00 | 57 | 1008.5 |
| 20260507075938 | 53 | 225 | 0.0 | 0.0 | 0.00 | 0.00 | 0.00 | 56 | 1008.1 |
| 20260507075440 | 53 | 259 | 1.0 | 1.0 | 0.00 | 0.00 | 0.00 | 55 | 1008.5 |
| 20260507074939 | 53 | 242 | 0.0 | 0.0 | 0.00 | 0.00 | 0.00 | 54 | 1008.5 |
| 20260507074444 | 53 | 240 | 0.0 | 1.0 | 0.00 | 0.00 | 0.00 | 55 | 1008.5 |
| 20260507073938 | 53 | 252 | 1.0 | 1.0 | 0.00 | 0.00 | 0.00 | 55 | 1008.5 |
| 20260507073437 | 53 | 250 | 0.0 | 1.0 | 0.00 | 0.00 | 0.00 | 55 | 1008.8 |
| 20260507072939 | 53 | 247 | 0.0 | 0.0 | 0.00 | 0.00 | 0.00 | 54 | 1008.5 |
| 20260507072511 | 53 | 247 | 0.0 | 0.0 | 0.00 | 0.00 | 0.00 | 54 | 1008.5 |
| 20260507072011 | 53 | 247 | 0.0 | 0.0 | 0.00 | 0.00 | 0.00 | 54 | 1008.5 |
| 20260507071510 | 53 | 247 | 0.0 | 1.0 | 0.00 | 0.00 | 0.00 | 54 | 1008.5 |
| 20260507071011 | 53 | 246 | 0.0 | 0.0 | 0.00 | 0.00 | 0.00 | 54 | 1008.5 |
| 20260507070512 | 53 | 246 | 0.0 | 0.0 | 0.00 | 0.00 | 0.00 | 54 | 1008.5 |
| 20260507070039 | 53 | 246 | 0.0 | 0.0 | 0.00 | 0.00 | 0.00 | 54 | 1008.5 |
| 20260507065609 | 53 | 246 | 0.0 | 0.0 | 0.00 | 0.00 | 0.00 | 54 | 1008.5 |
| 20260507065113 | 53 | 246 | 0.0 | 0.0 | 0.00 | 0.00 | 0.00 | 53 | 1008.8 |
| 20260507064636 | 53 | 246 | 0.0 | 0.0 | 0.00 | 0.00 | 0.00 | 53 | 1008.8 |
| 20260507064142 | 52 | 246 | 0.0 | 1.0 | 0.00 | 0.00 | 0.00 | 53 | 1008.5 |
| 20260507063713 | 52 | 244 | 0.0 | 0.0 | 0.00 | 0.00 | 0.00 | 53 | 1008.5 |
| 20260507063210 | 52 | 238 | 0.0 | 0.0 | 0.00 | 0.00 | 0.00 | 53 | 1008.8 |
| 20260507062737 | 52 | 244 | 0.0 | 0.0 | 0.00 | 0.00 | 0.00 | 53 | 1008.5 |
| 20260507062242 | 52 | 244 | 0.0 | 1.0 | 0.00 | 0.00 | 0.00 | 52 | 1008.5 |
| 20260507061743 | 52 | 239 | 0.0 | 0.0 | 0.00 | 0.00 | 0.00 | 52 | 1008.5 |
| 20260507061240 | 52 | 146 | 1.0 | 1.0 | 0.00 | 0.00 | 0.00 | 52 | 1008.5 |
| 20260507060736 | 53 | 225 | 0.0 | 0.0 | 0.00 | 0.00 | 0.00 | 53 | 1008.5 |
| 20260507060311 | 53 | 224 | 0.0 | 0.0 | 0.00 | 0.00 | 0.00 | 53 | 1008.5 |
| 20260507055839 | 53 | 224 | 0.0 | 0.0 | 0.00 | 0.00 | 0.00 | 52 | 1008.5 |
| 20260507055342 | 53 | 224 | 0.0 | 0.0 | 0.00 | 0.00 | 0.00 | 51 | 1008.5 |
| 20260507054841 | 53 | 226 | 0.0 | 0.0 | 0.00 | 0.00 | 0.00 | 51 | 1008.1 |
| 20260507054343 | 54 | 189 | 0.0 | 0.0 | 0.00 | 0.00 | 0.00 | 52 | 1008.1 |
| 20260507053838 | 54 | 152 | 0.0 | 0.0 | 0.00 | 0.00 | 0.00 | 52 | 1008.1 |
| 20260507053339 | 54 | 152 | 0.0 | 0.0 | 0.00 | 0.00 | 0.00 | 51 | 1008.1 |
| 20260507052837 | 54 | 152 | 0.0 | 0.0 | 0.00 | 0.00 | 0.00 | 50 | 1008.1 |
| 20260507052337 | 55 | 266 | 0.0 | 1.0 | 0.00 | 0.00 | 0.00 | 50 | 1007.8 |
| 20260507051835 | 55 | 195 | 0.0 | 0.0 | 0.00 | 0.00 | 0.00 | 49 | 1007.8 |
| 20260507051338 | 55 | 154 | 0.0 | 0.0 | 0.00 | 0.00 | 0.00 | 49 | 1008.5 |
| 20260507050836 | 55 | 155 | 0.0 | 0.0 | 0.00 | 0.00 | 0.00 | 49 | 1008.1 |
| 20260507050337 | 55 | 119 | 0.0 | 1.0 | 0.00 | 0.00 | 0.00 | 48 | 1008.1 |
| 20260507045839 | 55 | 171 | 0.0 | 0.0 | 0.00 | 0.00 | 0.00 | 49 | 1007.8 |
| 20260507045329 | 55 | 133 | 0.0 | 1.0 | 0.00 | 0.00 | 0.00 | 48 | 1008.1 |
| 20260507044830 | 55 | 124 | 1.0 | 1.0 | 0.00 | 0.00 | 0.00 | 49 | 1007.8 |
| 20260507044331 | 56 | 123 | 1.0 | 1.0 | 0.00 | 0.00 | 0.00 | 49 | 1007.8 |
| 20260507043829 | 56 | 132 | 0.0 | 1.0 | 0.00 | 0.00 | 0.00 | 48 | 1007.5 |
| 20260507043330 | 56 | 120 | 1.0 | 1.0 | 0.00 | 0.00 | 0.00 | 48 | 1007.5 |
| 20260507042828 | 56 | 137 | 0.0 | 1.0 | 0.00 | 0.00 | 0.00 | 48 | 1007.5 |
| 20260507042328 | 57 | 162 | 0.0 | 0.0 | 0.00 | 0.00 | 0.00 | 48 | 1007.5 |
| 20260507041829 | 57 | 122 | 0.0 | 1.0 | 0.00 | 0.00 | 0.00 | 48 | 1007.1 |
| 20260507041331 | 57 | 148 | 0.0 | 1.0 | 0.00 | 0.00 | 0.00 | 48 | 1007.1 |
| 20260507040828 | 57 | 115 | 2.0 | 2.0 | 0.00 | 0.00 | 0.00 | 48 | 1007.5 |
| 20260507040327 | 57 | 160 | 0.0 | 1.0 | 0.00 | 0.00 | 0.00 | 47 | 1007.1 |